Weather History for KCRG - October, 2014

Change the Weather History Date:

Friday, October 24, 2014

  Actual Average Record
Temperature  
Mean Temperature 62 °F -  
Max Temperature 73 °F 76 °F 87 °F (2001)
Min Temperature 51 °F 59 °F 45 °F (1999)
Degree Days  
Heating Degree Days 3    
Growing Degree Days 12 (Base 50)    
Moisture  
Dew Point 52 °F    
Average Humidity 72    
Maximum Humidity 92    
Minimum Humidity 47    
Precipitation  
Precipitation 0.00 in - - ()
Sea Level Pressure  
Sea Level Pressure 30.01 in    
Wind  
Wind Speed 2 mph (NNE)    
Max Wind Speed 9 mph    
Max Gust Speed -    
Visibility 10 miles    
Events      
Averages and records for this station are not official NWS values.
T = Trace of Precipitation, MM = Missing Value Source: NWS Daily Summary

Daily Weather History Graph

Daily Weather History Graph

Search for Another Location

Airport or City:

Trip Planner

Search our weather history database for the weather conditions in past years. The results will help you decide how hot, cold, wet, or windy it might be!

Date:

Astronomy

Oct. 24, 2014 Rise Set
Actual Time 7:34 AM EDT 6:45 PM EDT
Civil Twilight 7:09 AM EDT 7:10 PM EDT
Nautical Twilight 6:41 AM EDT 7:38 PM EDT
Astronomical Twilight 6:13 AM EDT 8:06 PM EDT
Moon 8:10 AM EDT (10/24) 7:28 PM EDT (10/24)
Length of Visible Light 12h 00m
Length of Day
11h 11m
New Moon, 1% of the Moon is Illuminated
Oct 24
New Moon
Oct 30
First Quarter
Nov 6
Full
Nov 14
Last Quarter
Nov 22
New

Hourly Weather History & Observations

Time (EDT) Temp. Dew Point Humidity Pressure Visibility Wind Dir Wind Speed Gust Speed Precip Events Conditions
12:53 AM 53.1 °F 50.0 °F 89% 30.03 in 10.0 mi Calm Calm - N/A   Clear
1:53 AM 53.1 °F 48.9 °F 86% 30.03 in 10.0 mi Calm Calm - N/A   Clear
2:53 AM 52.0 °F 48.9 °F 89% 30.01 in 10.0 mi Calm Calm - N/A   Clear
3:53 AM 53.1 °F 50.0 °F 89% 30.00 in 10.0 mi Calm Calm - N/A   Clear
4:53 AM 52.0 °F 48.9 °F 89% 30.00 in 10.0 mi Calm Calm - N/A   Clear
5:53 AM 52.0 °F 48.9 °F 89% 30.01 in 10.0 mi Calm Calm - N/A   Clear
6:53 AM 51.1 °F 48.9 °F 92% 30.01 in 10.0 mi Calm Calm - N/A   Clear
7:53 AM 53.1 °F 50.0 °F 89% 30.01 in 10.0 mi Calm Calm - N/A   Clear
8:53 AM 63.0 °F 53.1 °F 70% 30.03 in 10.0 mi NNW 6.9 mph - N/A   Clear
9:53 AM 66.9 °F 50.0 °F 54% 30.05 in 10.0 mi NNW 8.1 mph - N/A   Clear
10:53 AM 70.0 °F 48.9 °F 47% 30.06 in 10.0 mi NNW 9.2 mph - N/A   Clear
11:53 AM 72.0 °F 51.1 °F 48% 30.06 in 10.0 mi North 8.1 mph - N/A   Clear
12:53 PM 73.0 °F 52.0 °F 48% 30.04 in 10.0 mi Variable 5.8 mph - N/A   Clear
1:53 PM 73.0 °F 53.1 °F 49% 30.01 in 10.0 mi NE 9.2 mph - N/A   Clear
2:53 PM 73.0 °F 53.1 °F 49% 29.99 in 10.0 mi Variable 4.6 mph - N/A   Clear
3:53 PM 73.9 °F 53.1 °F 48% 29.98 in 10.0 mi NNE 5.8 mph - N/A   Clear
4:53 PM 72.0 °F 54.0 °F 53% 29.97 in 10.0 mi East 8.1 mph - N/A   Clear
5:53 PM 71.1 °F 54.0 °F 55% 29.96 in 10.0 mi ENE 6.9 mph - N/A   Clear
6:53 PM 66.0 °F 55.0 °F 68% 29.97 in 10.0 mi NE 5.8 mph - N/A   Clear
7:53 PM 62.1 °F 55.0 °F 78% 29.99 in 10.0 mi North 3.5 mph - N/A   Clear
8:53 PM 60.1 °F 55.0 °F 83% 29.99 in 10.0 mi Calm Calm - N/A   Clear
9:53 PM 57.9 °F 54.0 °F 87% 30.01 in 10.0 mi Calm Calm - N/A   Clear
10:53 PM 57.0 °F 53.1 °F 87% 30.01 in 10.0 mi Calm Calm - N/A   Clear
11:53 PM 55.9 °F 52.0 °F 87% 30.01 in 10.0 mi Calm Calm - N/A   Clear